| time (UTC) | temp F | wind direction | speed MPH | gust MPH | rain 1hr in | rain 24hr in | rain mn in | humidity % | barometer mb |
| 20260508113107 | 44 | 180 | 1.0 | 3.0 | 0.00 | 0.00 | 0.00 | 81 | 1017.8 |
| 20260508111538 | 44 | 183 | 2.0 | 4.0 | 0.00 | 0.00 | 0.00 | 81 | 1017.7 |
| 20260508110039 | 44 | 180 | 1.0 | 4.0 | 0.00 | 0.00 | 0.00 | 81 | 1017.6 |
| 20260508104529 | 43 | 188 | 2.0 | 5.0 | 0.00 | 0.00 | 0.00 | 81 | 1017.7 |
| 20260508103030 | 43 | 189 | 2.0 | 5.0 | 0.00 | 0.00 | 0.00 | 80 | 1017.7 |
| 20260508101607 | 43 | 180 | 1.0 | 5.0 | 0.00 | 0.00 | 0.00 | 79 | 1017.7 |
| 20260508100029 | 43 | 182 | 1.0 | 4.0 | 0.00 | 0.00 | 0.00 | 79 | 1017.7 |
| 20260508094645 | 43 | 180 | 1.0 | 4.0 | 0.00 | 0.00 | 0.00 | 79 | 1017.6 |
| 20260508093028 | 43 | 180 | 2.0 | 5.0 | 0.00 | 0.00 | 0.00 | 78 | 1017.5 |
| 20260508091607 | 44 | 189 | 2.0 | 4.0 | 0.00 | 0.00 | 0.00 | 77 | 1017.5 |
| 20260508090030 | 44 | 187 | 2.0 | 4.0 | 0.00 | 0.00 | 0.00 | 76 | 1017.5 |
| 20260508084532 | 46 | 183 | 1.0 | 4.0 | 0.00 | 0.00 | 0.00 | 74 | 1017.5 |
| 20260508083106 | 46 | 192 | 1.0 | 4.0 | 0.00 | 0.00 | 0.00 | 74 | 1017.5 |
| 20260508081530 | 46 | 202 | 2.0 | 4.0 | 0.00 | 0.00 | 0.00 | 73 | 1017.5 |
| 20260508080032 | 46 | 186 | 2.0 | 3.0 | 0.00 | 0.00 | 0.00 | 72 | 1017.4 |
| 20260508074533 | 46 | 182 | 2.0 | 4.0 | 0.00 | 0.00 | 0.00 | 70 | 1017.5 |
| 20260508073033 | 46 | 192 | 1.0 | 5.0 | 0.00 | 0.00 | 0.00 | 70 | 1017.5 |
| 20260508064530 | 48 | 169 | 1.0 | 4.0 | 0.00 | 0.00 | 0.00 | 63 | 1017.4 |
| 20260508063030 | 48 | 135 | 0.0 | 0.0 | 0.00 | 0.00 | 0.00 | 61 | 1017.4 |
| 20260508061530 | 49 | 351 | 1.0 | 5.0 | 0.00 | 0.00 | 0.00 | 59 | 1017.4 |
| 20260508060030 | 51 | 315 | 2.0 | 7.0 | 0.00 | 0.00 | 0.00 | 55 | 1017.4 |
| 20260508054531 | 51 | 180 | 4.0 | 6.0 | 0.00 | 0.00 | 0.00 | 53 | 1017.4 |
| 20260508051530 | 52 | 187 | 3.0 | 7.0 | 0.00 | 0.00 | 0.00 | 50 | 1017.5 |
| 20260508050030 | 51 | 180 | 5.0 | 7.0 | 0.00 | 0.00 | 0.00 | 50 | 1017.5 |
| 20260508044607 | 50 | 180 | 5.0 | 7.0 | 0.00 | 0.00 | 0.00 | 52 | 1017.4 |
| 20260508043029 | 50 | 180 | 3.0 | 6.0 | 0.00 | 0.00 | 0.00 | 52 | 1017.3 |
| 20260508041531 | 51 | 185 | 3.0 | 5.0 | 0.00 | 0.00 | 0.00 | 51 | 1017.3 |
| 20260508040031 | 53 | 189 | 2.0 | 5.0 | 0.00 | 0.00 | 0.00 | 47 | 1017.1 |
| 20260508034606 | 55 | 202 | 1.0 | 3.0 | 0.00 | 0.00 | 0.00 | 41 | 1017.0 |
| 20260508033032 | 57 | 191 | 2.0 | 4.0 | 0.00 | 0.00 | 0.00 | 39 | 1016.8 |
| 20260508031532 | 59 | 202 | 1.0 | 4.0 | 0.00 | 0.00 | 0.00 | 36 | 1016.7 |
| 20260508030033 | 61 | 194 | 1.0 | 4.0 | 0.00 | 0.00 | 0.00 | 31 | 1016.6 |
| 20260508024531 | 63 | 181 | 3.0 | 10.0 | 0.00 | 0.00 | 0.00 | 28 | 1016.5 |
| 20260508023029 | 65 | 183 | 3.0 | 10.0 | 0.00 | 0.00 | 0.00 | 26 | 1016.4 |
| 20260508021529 | 65 | 188 | 3.0 | 12.0 | 0.00 | 0.00 | 0.00 | 26 | 1016.2 |
| 20260508013031 | 69 | 202 | 1.0 | 6.0 | 0.00 | 0.00 | 0.00 | 24 | 1016.1 |
| 20260508011533 | 69 | 187 | 2.0 | 10.0 | 0.00 | 0.00 | 0.00 | 23 | 1016.3 |
| 20260508010031 | 69 | 255 | 5.0 | 14.0 | 0.00 | 0.00 | 0.00 | 23 | 1016.3 |
| 20260508004528 | 70 | 331 | 2.0 | 8.0 | 0.00 | 0.00 | 0.00 | 23 | 1016.2 |
| 20260508003030 | 71 | 13 | 1.0 | 13.0 | 0.00 | 0.00 | 0.00 | 23 | 1016.2 |
| 20260508000034 | 71 | 195 | 5.0 | 17.0 | 0.00 | 0.00 | 0.00 | 23 | 1016.0 |
| 20260507234534 | 72 | 288 | 3.0 | 15.0 | 0.00 | 0.00 | 0.00 | 26 | 1016.0 |
| 20260507233031 | 71 | 263 | 4.0 | 16.0 | 0.00 | 0.00 | 0.00 | 26 | 1016.1 |
| 20260507231607 | 71 | 200 | 7.0 | 16.0 | 0.00 | 0.00 | 0.00 | 27 | 1016.3 |
| 20260507224529 | 72 | 201 | 6.0 | 20.0 | 0.00 | 0.00 | 0.00 | 28 | 1016.5 |
| 20260507223106 | 73 | 329 | 4.0 | 14.0 | 0.00 | 0.00 | 0.00 | 29 | 1016.6 |
| 20260507221532 | 73 | 205 | 3.0 | 9.0 | 0.00 | 0.00 | 0.00 | 30 | 1016.7 |
| 20260507214530 | 72 | 251 | 3.0 | 17.0 | 0.00 | 0.00 | 0.00 | 34 | 1017.0 |
| 20260507213031 | 72 | 292 | 5.0 | 17.0 | 0.00 | 0.00 | 0.00 | 35 | 1017.2 |
| 20260507211537 | 73 | 193 | 5.0 | 18.0 | 0.00 | 0.00 | 0.00 | 36 | 1017.2 |
| 20260507210031 | 73 | 204 | 8.0 | 19.0 | 0.00 | 0.00 | 0.00 | 37 | 1017.2 |
| 20260507204604 | 73 | 181 | 4.0 | 9.0 | 0.00 | 0.00 | 0.00 | 37 | 1017.5 |
| 20260507201532 | 72 | 194 | 5.0 | 16.0 | 0.00 | 0.00 | 0.00 | 38 | 1017.9 |
| 20260507200107 | 72 | 203 | 3.0 | 13.0 | 0.00 | 0.00 | 0.00 | 40 | 1018.0 |
| 20260507194529 | 72 | 259 | 4.0 | 15.0 | 0.00 | 0.00 | 0.00 | 40 | 1018.1 |
| 20260507193031 | 71 | 299 | 3.0 | 12.0 | 0.00 | 0.00 | 0.00 | 42 | 1018.3 |
| 20260507191605 | 69 | 340 | 3.0 | 13.0 | 0.00 | 0.00 | 0.00 | 43 | 1018.5 |
| 20260507190033 | 69 | 345 | 2.0 | 8.0 | 0.00 | 0.00 | 0.00 | 44 | 1018.8 |
| 20260507184532 | 67 | 358 | 4.0 | 8.0 | 0.00 | 0.00 | 0.00 | 46 | 1019.0 |
| 20260507181532 | 67 | 72 | 4.0 | 8.0 | 0.00 | 0.00 | 0.00 | 48 | 1019.1 |
| 20260507174533 | 66 | 135 | 4.0 | 7.0 | 0.00 | 0.00 | 0.00 | 50 | 1019.3 |
| 20260507171630 | 63 | 28 | 2.0 | 8.0 | 0.00 | 0.00 | 0.00 | 55 | 1019.7 |
| 20260507164532 | 62 | 326 | 2.0 | 9.0 | 0.00 | 0.00 | 0.00 | 57 | 1019.8 |
| 20260507163037 | 61 | 350 | 2.0 | 6.0 | 0.00 | 0.00 | 0.00 | 59 | 1019.9 |
| 20260507161532 | 60 | 255 | 2.0 | 8.0 | 0.00 | 0.00 | 0.00 | 61 | 1020.0 |
| 20260507160032 | 60 | 217 | 4.0 | 11.0 | 0.00 | 0.00 | 0.00 | 62 | 1020.1 |
| 20260507154529 | 59 | 320 | 2.0 | 6.0 | 0.00 | 0.00 | 0.00 | 65 | 1020.2 |
| 20260507153032 | 58 | 302 | 1.0 | 7.0 | 0.00 | 0.00 | 0.00 | 69 | 1020.3 |
| 20260507151531 | 56 | 352 | 3.0 | 8.0 | 0.00 | 0.00 | 0.00 | 71 | 1020.4 |
| 20260507150038 | 55 | 5 | 4.0 | 9.0 | 0.00 | 0.00 | 0.00 | 74 | 1020.4 |
| 20260507144607 | 52 | 48 | 2.0 | 9.0 | 0.00 | 0.00 | 0.00 | 82 | 1020.4 |
| 20260507143031 | 51 | 197 | 1.0 | 4.0 | 0.00 | 0.00 | 0.00 | 84 | 1020.4 |
| 20260507141530 | 50 | 178 | 1.0 | 4.0 | 0.00 | 0.00 | 0.00 | 86 | 1020.3 |
| 20260507140107 | 50 | 160 | 2.0 | 4.0 | 0.00 | 0.00 | 0.00 | 86 | 1020.1 |
| 20260507134533 | 48 | 175 | 3.0 | 6.0 | 0.00 | 0.00 | 0.00 | 88 | 1019.9 |
| 20260507133028 | 47 | 189 | 1.0 | 5.0 | 0.00 | 0.00 | 0.00 | 88 | 1019.8 |
| 20260507131607 | 47 | 189 | 1.0 | 3.0 | 0.00 | 0.00 | 0.00 | 86 | 1019.7 |
| 20260507130031 | 48 | 186 | 1.0 | 3.0 | 0.00 | 0.00 | 0.00 | 84 | 1019.7 |
| 20260507124529 | 49 | 166 | 1.0 | 4.0 | 0.00 | 0.00 | 0.00 | 82 | 1019.7 |
| 20260507121607 | 51 | 180 | 3.0 | 7.0 | 0.00 | 0.00 | 0.00 | 80 | 1019.7 |
| 20260507120034 | 52 | 195 | 2.0 | 7.0 | 0.00 | 0.00 | 0.00 | 80 | 1019.7 |